Regional Weather Roundup
Issued by NWS Midland/Odessa, TX

Home | Current Version | Previous Version | Text Only | Print | Product List | Glossary On
Versions: 1 2 3 4 5 6 7 8 9 10 11 12 13 14 15 16 17 18 19 20 21 22 23 24 25 26 27 28 29 30 31 32 33 34 35 36 37 38 39 40 41 42 43 44 45 46 47 48 49 50
000
ASUS44 KMAF 161710
RWRMAF
MIDLAND AREA WEATHER ROUNDUP
NATIONAL WEATHER SERVICE MIDLAND TX
1200 PM CDT TUE SEP 16 2014

...IN SOUTHWEST TEXAS AND SOUTHEAST NEW MEXICO...

CITY           SKY/WX    TMP DP  RH WIND       PRES   REMARKS
ALPINE         MOSUNNY   75  61  61 E12       30.30F
ANDREWS        CLOUDY    73  65  75 CALM      30.23F
ARTESIA        NOT AVBL
BIG SPRING     CLOUDY    79  67  66 CALM      30.23S
CARLSBAD       LGT RAIN  71  71 100 N3        30.22S FOG
DRYDEN           N/A     84  65  52 E9        30.13F
FORT STOCKTON  MOSUNNY   74  64  71 SE8       30.19F
GUAD PASS      FOG       62  62 100 NE28      30.30F VSB<1/4
HOBBS          LGT RAIN  68  68 100 CALM      30.26S FOG
MARFA          CLOUDY    73  61  64 SE13      30.28S
MIDLAND AIRPK  NOT AVBL
MIDLAND INTL   CLOUDY    75  67  76 SE7       30.21S
ODESSA         CLOUDY    74  66  76 SE6       30.22S
PECOS          PTSUNNY   77  64  63 SE9G16    30.18S
PRESIDIO       FAIR      79  64  59 E10       30.15S
SEMINOLE       CLOUDY    73  65  74 CALM      30.25S
SNYDER         CLOUDY    76  67  72 CALM      30.20S
WINK           CLOUDY    78  64  61 SE14      30.18F
$$
...OTHER STATIONS IN TEXAS...

CITY           SKY/WX    TMP DP  RH WIND       PRES   REMARKS
ABILENE        CLOUDY    83  66  56 VRB5      30.16F
AMARILLO       PTSUNNY   69  61  75 SW6       30.25F
AUSTIN         PTSUNNY   88  73  61 NE8       30.06F
BROWNSVILLE    MOSUNNY   86  76  71 S12       30.03F
CORPUS CHRISTI PTSUNNY   87  77  72 S16       30.01F
DALLAS FTW     PTSUNNY   84  69  60 CALM      30.11F
DEL RIO        CLOUDY    84  69  60 CALM      30.08F
EL PASO        CLOUDY    70  64  81 N12       30.21S
HOUSTON INT    PTSUNNY   88  75  65 SE6       30.05F
LUBBOCK        PTSUNNY   75  64  68 VRB3      30.23S
SAN ANGELO     PTSUNNY   80  68  66 S5        30.15F
SAN ANTONIO    PTSUNNY   89  71  55 E10G18    30.07F
WACO           PTSUNNY   87  73  62 VRB3      30.09F
WICHITA FALLS  NOT AVBL
$$
...OTHER LOCATIONS IN NEW MEXICO...

CITY           SKY/WX    TMP DP  RH WIND       PRES   REMARKS
ALAMAGORDO     CLOUDY    68  66  94 NW8       30.25F
ALBUQUERQUE    CLOUDY    69  57  65 S3        30.32S
CANNON AFB     CLOUDY    68  64  88 S6        30.28F
CLOVIS           N/A     66  61  82 S7        30.31S
HOLLOMAN AFB   CLOUDY    68  66  94 NW5       30.23F
ROSWELL        LGT RAIN  69  65  86 CALM      30.25S FOG
RUIDOSO        LGT RAIN  57  57 100 NE3       30.42F VSB 1/2
SANTA FE       PTSUNNY   67  53  61 VRB5      30.35F
TRUTH OR CONSE CLOUDY    67  62  84 NE6       30.27F
TUCUMCARI      CLOUDY    71  58  63 SW8       30.25F
$$


USA.gov is the U.S. government's official web portal to all federal, state and local government web resources and services.